map of POI home
Great Circle Mapper logo
POI - Airport
Location
City:  Potosí, Tomás Frías, Potosí, Bolivia
Name:Capitán Nicolás Rojas
ICAO / IATA:SLPO / POI

Details
Type:Airport (Aerodrome, Airfield)
Latitude:19°32'35"S (-19.543068)
Longitude:65°43'25"W (-65.723705)
Datum:WGS 1984
Elevation:12913 ft (3936 m)
Variation:8.70°W (WMM2015 magnetic declination)
-0.19° annual change
Runways:1
Longest:9295 × 98 ft (2833 × 30 m), paved

Time
Time Zone:UTC-4
Local Time:

Weather
METAR:SLPO 272100Z 03008KT 9999 NSC 14/M06 Q1034

Related Locations
Nearby:
Farthest:ZUH: 12252 mi / 19718 km
Zhuhai (Sanzao, Shanzhou) [Intl], Guangdong, CN

Find:

   beyond  
but within

Other Information
Maps:
NOTAMs:
Links:
Sources:

  
flag of Bolivia
flag of Potosí
  

Sectional Chart

Flight Planning
at skyvector.com

Satellite Image

Google Maps Satellite view

 

Copyright © 2004-2015 Karl L. Swartz. All rights reserved.
The Great Circle Mapper name and logo are trademarks of the Great Circle Mapper.
All other trademarks mentioned herein belong to their respective owners.
Please see credits for attibutions and further copyright information.

  Follow gcmap on Facebook Follow gcmap on Twitter Follow gcmap on Google+

hCard Microformat

Geo Microformat